DW9313 Weather Reports


Display with metric or nautical units.
time (UTC)temp
F
wind
direction
speed
MPH
gust
MPH
rain 1hr
in
rain 24hr
in
rain mn
in
humidity
%
barometer
mb
20260831172244 66 291 2.0 8.0 0.00 0.02 0.00 70 1017.0
20260831171745 66 286 3.0 6.0 0.00 0.03 0.00 70 1017.0
20260831171244 66 284 3.0 6.0 0.00 0.03 0.00 70 1016.9
20260831170244 66 297 3.0 6.0 0.00 0.03 0.00 69 1016.7
20260831165743 66 285 2.0 6.0 0.00 0.04 0.00 69 1016.8
20260831165245 66 296 2.0 6.0 0.00 0.04 0.00 69 1016.7
20260831164744 66 284 2.0 6.0 0.00 0.04 0.00 69 1016.7
20260831164246 66 282 1.0 7.0 0.00 0.04 0.00 69 1016.7
20260831163244 66 274 3.0 6.0 0.00 0.04 0.00 68 1016.6
20260831162746 66 298 3.0 6.0 0.00 0.04 0.00 68 1016.7
20260831162244 66 297 2.0 6.0 0.00 0.04 0.00 68 1016.6
20260831161746 66 290 3.0 7.0 0.00 0.04 0.00 68 1016.6
20260831161244 66 289 3.0 8.0 0.00 0.04 0.00 67 1016.6
20260831160744 66 303 5.0 9.0 0.00 0.04 0.00 67 1016.6
20260831160244 66 299 1.0 6.0 0.00 0.04 0.00 67 1016.6
20260831155745 66 286 3.0 7.0 0.00 0.05 0.00 67 1016.6
20260831154745 66 291 3.0 8.0 0.00 0.06 0.00 66 1016.6
20260831154245 66 319 4.0 7.0 0.00 0.06 0.00 66 1016.5
20260831153744 65 306 6.0 9.0 0.00 0.06 0.00 66 1016.6
20260831153245 65 291 6.0 10.0 0.00 0.06 0.00 65 1016.6
20260831152746 65 310 4.0 7.0 0.00 0.07 0.00 67 1016.5
20260831151744 65 290 3.0 8.0 0.00 0.07 0.00 67 1016.5
20260831151246 65 284 6.0 12.0 0.00 0.07 0.00 66 1016.4
20260831150744 65 301 6.0 12.0 0.00 0.07 0.00 66 1016.4
20260831150244 65 296 6.0 12.0 0.00 0.07 0.00 67 1016.4
20260831145746 65 282 6.0 12.0 0.00 0.07 0.00 66 1016.4
20260831145246 65 293 5.0 9.0 0.00 0.07 0.00 68 1016.4
20260831144747 65 277 4.0 12.0 0.00 0.07 0.00 69 1016.4
20260831143747 65 291 7.0 12.0 0.00 0.07 0.00 69 1016.5
20260831143245 65 307 8.0 14.0 0.00 0.07 0.00 68 1016.3
20260831142746 65 290 7.0 13.0 0.00 0.07 0.00 68 1016.3
20260831142247 66 302 6.0 14.0 0.00 0.07 0.00 66 1016.2
20260831141745 66 290 6.0 10.0 0.00 0.07 0.00 66 1016.1
20260831141245 66 270 5.0 12.0 0.00 0.07 0.00 66 1016.1
20260831140246 66 307 5.0 10.0 0.00 0.07 0.00 64 1016.0
20260831135247 66 294 3.0 9.0 0.00 0.07 0.00 64 1016.0
20260831134748 66 295 6.0 10.0 0.00 0.07 0.00 63 1016.0
20260831133746 66 298 6.0 9.0 0.00 0.07 0.00 64 1016.0
20260831133246 66 280 5.0 12.0 0.00 0.07 0.00 63 1016.0
20260831132746 66 288 6.0 12.0 0.00 0.07 0.00 66 1015.9
20260831132246 66 298 7.0 15.0 0.00 0.07 0.00 64 1015.9
20260831131747 66 298 6.0 8.0 0.00 0.07 0.00 64 1015.9
20260831131246 65 307 6.0 12.0 0.00 0.07 0.00 65 1015.9
20260831125747 65 309 5.0 9.0 0.00 0.07 0.00 64 1015.8
20260831124246 65 305 6.0 14.0 0.00 0.07 0.00 65 1015.6
20260831123746 65 304 8.0 13.0 0.00 0.07 0.00 65 1015.5
20260831123246 64 282 6.0 17.0 0.00 0.07 0.00 65 1015.5
20260831122747 64 290 6.0 13.0 0.00 0.07 0.00 65 1015.5
20260831122248 64 298 6.0 13.0 0.00 0.07 0.00 67 1015.4
20260831121746 64 308 7.0 13.0 0.00 0.07 0.00 67 1015.4
20260831120747 64 278 10.0 18.0 0.00 0.07 0.00 67 1015.3
20260831120246 64 281 5.0 14.0 0.00 0.07 0.00 69 1015.3
20260831115748 64 304 6.0 15.0 0.00 0.07 0.00 68 1015.2
20260831115247 64 294 8.0 14.0 0.00 0.07 0.00 69 1015.2
20260831114746 64 308 7.0 13.0 0.00 0.07 0.00 69 1015.2
20260831114246 64 293 8.0 15.0 0.00 0.07 0.00 70 1015.1
20260831113746 64 291 7.0 13.0 0.00 0.07 0.00 69 1015.0
20260831113247 64 289 4.0 12.0 0.00 0.07 0.00 71 1015.0
20260831112748 63 285 5.0 10.0 0.00 0.07 0.00 68 1015.0
20260831112246 63 287 6.0 14.0 0.00 0.07 0.00 67 1014.8
20260831111747 63 293 6.0 12.0 0.00 0.07 0.00 67 1014.7
20260831111247 63 291 6.0 14.0 0.00 0.07 0.00 66 1014.8
20260831110747 63 284 5.0 8.0 0.00 0.07 0.00 67 1014.7
20260831110247 63 313 7.0 14.0 0.00 0.07 0.00 67 1014.6
20260831105747 62 296 7.0 12.0 0.00 0.07 0.00 68 1014.7
20260831105247 63 302 7.0 15.0 0.00 0.07 0.00 69 1014.6
20260831104747 63 288 6.0 14.0 0.00 0.07 0.00 69 1014.5
20260831104247 62 305 9.0 15.0 0.00 0.07 0.00 69 1014.4
20260831103747 62 289 10.0 16.0 0.00 0.07 0.00 69 1014.2
20260831103248 63 285 8.0 13.0 0.00 0.07 0.00 69 1014.3
20260831102747 63 295 7.0 14.0 0.00 0.07 0.00 71 1014.3
20260831102249 63 315 10.0 16.0 0.00 0.07 0.00 71 1014.2
20260831101748 62 307 7.0 13.0 0.00 0.07 0.00 73 1014.0
20260831101247 62 293 6.0 14.0 0.00 0.07 0.00 73 1014.1
20260831100748 62 295 6.0 13.0 0.00 0.09 0.00 73 1014.1
20260831100249 62 315 5.0 10.0 0.00 0.09 0.00 74 1014.1
20260831095748 62 305 8.0 14.0 0.00 0.10 0.00 73 1014.1
20260831095248 62 298 8.0 15.0 0.00 0.13 0.00 73 1013.9
20260831094747 62 310 7.0 12.0 0.00 0.13 0.00 74 1013.9
20260831093747 62 287 5.0 12.0 0.00 0.13 0.00 76 1013.8
20260831093249 61 289 6.0 12.0 0.00 0.13 0.00 77 1013.8
20260831092248 61 306 6.0 10.0 0.00 0.14 0.00 78 1013.8
20260831091748 61 293 3.0 10.0 0.00 0.14 0.00 79 1013.8
20260831091249 61 298 5.0 8.0 0.00 0.14 0.00 80 1013.7
20260831090748 61 299 6.0 8.0 0.00 0.15 0.00 80 1013.7
20260831090248 60 279 6.0 9.0 0.00 0.15 0.00 80 1013.6
20260831085249 60 311 6.0 14.0 0.00 0.15 0.00 81 1013.4
20260831084748 60 296 7.0 13.0 0.00 0.15 0.00 82 1013.3
20260831084248 60 291 7.0 10.0 0.00 0.15 0.00 82 1013.1
20260831083748 60 297 6.0 13.0 0.00 0.16 0.00 83 1013.0
20260831083248 60 304 7.0 14.0 0.00 0.16 0.00 82 1012.9
20260831082748 60 306 8.0 16.0 0.00 0.16 0.00 83 1012.9
20260831082249 59 292 7.0 13.0 0.00 0.16 0.00 82 1012.9
20260831081749 60 301 5.0 10.0 0.00 0.16 0.00 83 1012.9
20260831080749 59 280 6.0 12.0 0.00 0.16 0.00 83 1012.8
20260831080249 59 276 5.0 10.0 0.00 0.17 0.00 83 1012.7
20260831075250 59 284 6.0 12.0 0.00 0.17 0.00 83 1012.6
20260831074748 59 293 5.0 8.0 0.00 0.19 0.00 84 1012.5
20260831074248 59 294 2.0 6.0 0.00 0.19 0.00 85 1012.4
20260831073249 59 273 2.0 6.0 0.00 0.20 0.00 87 1012.5
20260831072749 58 309 5.0 7.0 0.00 0.20 0.00 87 1012.3
20260831072248 58 305 3.0 9.0 0.00 0.20 0.00 88 1012.1
20260831071749 58 318 5.0 10.0 0.00 0.20 0.00 89 1011.9
20260831070749 57 300 2.0 6.0 0.00 0.20 0.00 92 1011.8
20260831065749 57 288 2.0 6.0 0.00 0.20 0.00 93 1011.6
20260831064749 56 294 2.0 6.0 0.00 0.20 0.00 93 1011.5
20260831064249 57 291 4.0 8.0 0.00 0.20 0.00 93 1011.3
20260831063752 57 312 5.0 9.0 0.00 0.20 0.00 93 1011.2
20260831063253 57 308 6.0 13.0 0.00 0.20 0.00 93 1011.1
20260831062805 57 305 7.0 12.0 0.00 0.20 0.00 92 1011.0
20260831062250 57 310 7.0 14.0 0.00 0.20 0.00 92 1011.0
20260831061755 57 298 7.0 10.0 0.00 0.20 0.00 92 1011.0
20260831061251 57 297 5.0 13.0 0.00 0.20 0.00 91 1011.0
20260831060749 58 303 7.0 15.0 0.00 0.20 0.00 90 1010.9
20260831060251 58 293 5.0 12.0 0.00 0.20 0.00 90 1010.7
20260831055750 58 300 5.0 9.0 0.00 0.20 0.00 91 1010.5
20260831055250 58 291 5.0 14.0 0.00 0.21 0.00 91 1010.4
20260831054249 58 279 3.0 6.0 0.00 0.22 0.00 91 1010.2
20260831053749 58 291 2.0 7.0 0.00 0.22 0.00 91 1010.0
20260831052750 58 314 5.0 9.0 0.00 0.22 0.00 92 1009.6
20260831052251 58 313 4.0 10.0 0.00 0.22 0.00 92 1009.6
20260831051750 58 300 3.0 7.0 0.00 0.23 0.00 92 1009.6
20260831051250 58 290 2.0 8.0 0.00 0.24 0.00 93 1009.6
20260831050751 58 293 2.0 5.0 0.00 0.24 0.00 93 1009.4
20260831045250 58 304 3.0 8.0 0.00 0.25 0.00 93 1009.2
20260831044750 58 302 2.0 7.0 0.00 0.25 0.00 92 1009.3
20260831043252 58 295 4.0 12.0 0.00 0.25 0.00 91 1009.1
20260831042750 59 303 10.0 16.0 0.00 0.25 0.00 91 1009.0
20260831042251 59 309 6.0 13.0 0.00 0.25 0.00 91 1009.0
20260831041750 59 297 4.0 9.0 0.00 0.25 0.00 92 1008.9
20260831041252 59 270 2.0 6.0 0.00 0.25 0.00 92 1008.8
20260831040251 59 282 3.0 6.0 0.00 0.26 0.00 92 1008.6
20260831035751 59 288 2.0 6.0 0.00 0.26 0.00 92 1008.5
20260831035251 59 289 3.0 9.0 0.00 0.26 0.00 92 1008.5
20260831034751 59 298 2.0 7.0 0.00 0.26 0.00 92 1008.4
20260831034250 58 283 2.0 6.0 0.00 0.26 0.00 92 1008.3
20260831033752 58 311 1.0 5.0 0.00 0.26 0.00 93 1008.2
20260831033252 58 279 2.0 5.0 0.00 0.26 0.00 93 1008.1
20260831032751 58 271 0.0 3.0 0.00 0.26 0.00 93 1008.0
20260831032251 58 301 0.0 1.0 0.00 0.26 0.00 93 1008.0
20260831031751 58 273 1.0 3.0 0.00 0.26 0.00 93 1007.8
20260831031251 58 286 0.0 1.0 0.00 0.26 0.00 93 1007.8
20260831030751 58 265 0.0 2.0 0.00 0.26 0.00 93 1007.7
20260831030251 58 292 1.0 3.0 0.00 0.26 0.00 93 1007.6
20260831025751 58 292 1.0 5.0 0.00 0.26 0.00 93 1007.5
20260831025250 58 284 2.0 6.0 0.00 0.28 0.00 93 1007.4
20260831024751 58 298 2.0 5.0 0.00 0.28 0.00 93 1007.4
20260831024252 58 277 2.0 6.0 0.00 0.28 0.00 93 1007.3
20260831023752 58 293 2.0 6.0 0.00 0.28 0.00 92 1007.2
20260831023252 58 272 2.0 5.0 0.00 0.28 0.00 93 1007.1
20260831022752 58 280 3.0 6.0 0.00 0.28 0.00 93 1007.0
20260831022252 58 294 3.0 6.0 0.00 0.28 0.00 93 1007.0
20260831021752 58 273 2.0 5.0 0.00 0.28 0.00 93 1006.8
20260831021253 58 282 2.0 6.0 0.00 0.28 0.00 93 1006.8
20260831020752 58 283 2.0 5.0 0.00 0.28 0.00 93 1006.6
20260831020251 58 283 2.0 5.0 0.00 0.28 0.00 92 1006.6
20260831015752 58 290 2.0 5.0 0.00 0.28 0.00 92 1006.5
20260831015252 58 289 3.0 6.0 0.00 0.28 0.00 92 1006.4
20260831014752 58 286 2.0 6.0 0.00 0.28 0.00 92 1006.4
20260831014251 58 285 2.0 6.0 0.00 0.28 0.00 92 1006.3
20260831013252 58 284 3.0 7.0 0.00 0.28 0.00 92 1006.2
20260831012753 58 267 2.0 6.0 0.00 0.28 0.00 91 1006.1
20260831011752 58 277 4.0 8.0 0.00 0.28 0.00 92 1005.9
20260831011252 58 284 4.0 9.0 0.00 0.28 0.00 92 1005.9
20260831010753 58 291 4.0 7.0 0.00 0.28 0.00 92 1005.8
20260831010252 58 287 2.0 8.0 0.00 0.28 0.00 92 1005.7
20260831005752 58 295 2.0 6.0 0.00 0.28 0.00 92 1005.7
20260831005253 58 282 1.0 7.0 0.00 0.28 0.00 92 1005.6
20260831004752 58 291 3.0 9.0 0.00 0.28 0.00 92 1005.6
20260831004253 58 279 2.0 8.0 0.00 0.28 0.00 92 1005.6
20260831003752 58 284 3.0 6.0 0.00 0.28 0.00 92 1005.5
20260831002253 58 288 2.0 13.0 0.00 0.28 0.00 92 1005.4
20260831001752 58 292 3.0 6.0 0.00 0.28 0.00 92 1005.4
20260831001253 58 276 3.0 7.0 0.00 0.28 0.00 92 1005.2
20260831000752 58 282 3.0 7.0 0.00 0.28 0.00 92 1005.1
20260831000252 58 291 3.0 6.0 0.00 0.28 0.00 92 1005.1
20260830235752 58 287 4.0 7.0 0.00 0.28 0.00 92 1005.0
20260830235254 58 287 3.0 7.0 0.00 0.28 0.00 92 1004.8
20260830234752 58 287 3.0 6.0 0.00 0.28 0.00 92 1004.8
20260830234253 58 298 3.0 7.0 0.00 0.28 0.00 91 1004.7
20260830233752 59 288 4.0 10.0 0.00 0.28 0.00 91 1004.6
20260830232753 59 278 3.0 12.0 0.00 0.28 0.00 92 1004.4
20260830232252 59 286 5.0 9.0 0.00 0.28 0.00 92 1004.5
20260830231752 59 285 3.0 6.0 0.00 0.28 0.00 92 1004.4
20260830231254 59 304 3.0 7.0 0.00 0.28 0.00 92 1004.4
20260830230814 58 289 5.0 9.0 0.00 0.28 0.00 92 1004.3
20260830230254 58 284 3.0 6.0 0.00 0.28 0.00 92 1004.2
20260830225753 58 278 3.0 9.0 0.00 0.28 0.28 92 1004.1
20260830225253 58 289 2.0 7.0 0.00 0.28 0.28 92 1004.2
20260830224753 58 278 2.0 7.0 0.00 0.28 0.28 93 1004.1
20260830224253 58 277 3.0 6.0 0.00 0.28 0.28 93 1004.0
20260830223754 58 283 2.0 6.0 0.00 0.28 0.28 94 1004.0
20260830222753 57 284 1.0 3.0 0.00 0.28 0.28 93 1003.8
20260830222253 57 273 1.0 2.0 0.00 0.28 0.28 93 1003.8
20260830221753 57 290 1.0 2.0 0.00 0.28 0.28 93 1003.7
20260830220754 57 267 1.0 2.0 0.00 0.28 0.28 93 1003.5
20260830220253 57 279 1.0 5.0 0.00 0.28 0.28 94 1003.5
20260830215753 57 284 2.0 6.0 0.00 0.28 0.28 94 1003.5
20260830215255 56 276 2.0 5.0 0.00 0.28 0.28 94 1003.4
20260830214753 56 273 1.0 3.0 0.00 0.28 0.28 94 1003.3
20260830214254 56 275 1.0 2.0 0.01 0.28 0.28 94 1003.2
20260830213253 56 282 1.0 3.0 0.01 0.28 0.28 94 1003.2
20260830212755 56 281 1.0 3.0 0.01 0.28 0.28 94 1003.1
20260830212254 56 285 1.0 3.0 0.01 0.28 0.28 94 1003.0
20260830211254 56 279 0.0 3.0 0.01 0.28 0.28 94 1002.9
20260830210755 56 279 1.0 2.0 0.01 0.28 0.28 94 1002.8
20260830210254 56 271 1.0 5.0 0.01 0.28 0.28 94 1002.7
20260830205754 56 286 1.0 5.0 0.01 0.28 0.28 94 1002.6
20260830205254 56 290 1.0 3.0 0.01 0.28 0.28 94 1002.5
20260830204755 56 285 1.0 3.0 0.01 0.28 0.28 93 1002.4
20260830204254 56 280 1.0 3.0 0.00 0.28 0.28 93 1002.4
20260830203753 57 276 1.0 2.0 0.00 0.28 0.28 93 1002.4
20260830202254 57 292 1.0 5.0 0.01 0.28 0.28 93 1002.2
20260830201754 57 311 2.0 6.0 0.01 0.28 0.28 92 1002.2
20260830201256 57 287 1.0 6.0 0.01 0.28 0.28 92 1002.2
20260830200754 57 306 2.0 6.0 0.01 0.28 0.28 92 1002.1
20260830200255 57 308 2.0 5.0 0.01 0.28 0.28 92 1002.1
20260830195254 57 297 0.0 2.0 0.01 0.28 0.28 93 1001.9
20260830194754 57 299 1.0 2.0 0.01 0.28 0.28 92 1001.8
20260830194254 57 298 1.0 5.0 0.01 0.28 0.28 92 1001.8
20260830193754 57 306 2.0 5.0 0.01 0.28 0.28 92 1001.7
20260830193254 57 283 1.0 6.0 0.01 0.28 0.28 92 1001.7
20260830192755 57 292 3.0 7.0 0.01 0.28 0.28 91 1001.7
20260830192255 57 288 3.0 6.0 0.01 0.27 0.27 91 1001.6
20260830191754 57 290 4.0 7.0 0.01 0.27 0.27 90 1001.6
20260830190755 58 287 4.0 9.0 0.01 0.27 0.27 90 1001.5
20260830190254 59 280 5.0 12.0 0.01 0.27 0.27 91 1001.4
20260830185756 60 289 1.0 2.0 0.01 0.27 0.27 93 1001.3
20260830185256 60 168 0.0 0.0 0.01 0.27 0.27 93 1001.2
20260830184755 60 149 0.0 0.0 0.01 0.27 0.27 93 1001.2
20260830184254 60 150 0.0 0.0 0.01 0.27 0.27 93 1001.1
20260830183755 60 149 0.0 0.0 0.01 0.27 0.27 93 1001.1
20260830183255 60 150 0.0 0.0 0.01 0.27 0.27 93 1001.1
20260830182255 60 139 0.0 1.0 0.00 0.26 0.26 92 1001.0
20260830181755 60 136 0.0 0.0 0.01 0.26 0.26 92 1001.0
20260830181255 60 150 0.0 0.0 0.01 0.26 0.26 92 1001.0
20260830180756 60 150 0.0 0.0 0.01 0.26 0.26 92 1001.0
20260830180255 60 148 0.0 0.0 0.01 0.26 0.26 92 1001.0
20260830175755 60 152 0.0 1.0 0.01 0.26 0.26 92 1000.9
20260830175255 60 148 0.0 1.0 0.02 0.26 0.26 92 1000.9
20260830174255 60 287 0.0 0.0 0.02 0.26 0.26 91 1000.9
20260830173257 60 287 0.0 1.0 0.02 0.27 0.26 91 1000.9
20260830172755 60 283 0.0 1.0 0.02 0.27 0.26 92 1000.9